User: anonymous   Login
Location: D�derode
(51.8092°N, 10.1065°E)
Time: 23:12:38
(UTC+00:00)
Language:

CZ-2C DEB - Orbit

View from above orbital plane
View from above orbital plane
View from above satellite
View from above satellite

Ground track
Ground track

The orbit data is extracted from the following two-line orbital elements,

1 39224U 13035E   21172.53540772  .00000186  00000-0  82426-4 0  9999
2 39224  97.9613  86.0921 0172842 217.7356 141.1602 14.25436963407221
Epoch (UTC): 21 June 2021 12:50:59
Eccentricity: 0.0172842
inclination: 97.9613°
perigee height: 683 km
apogee height: 931 km
right ascension of ascending node: 86.0921°
argument of perigee: 217.7356°
revolutions per day: 14.25436963
mean anomaly at epoch: 141.1602°
orbit number at epoch: 40722

The dashed part of the orbit path shows where the satellite is in the earth's shadow,  

DLR